Regional Weather Roundup
Issued by NWS

Home | Current Version | Previous Version | Text Only | Print | Product List | Glossary On
Versions: 1 2 3 4 5 6 7 8 9 10 11 12 13 14 15 16 17 18 19 20 21 22 23 24 25 26 27 28 29 30 31 32 33 34 35 36 37 38 39 40 41 42 43 44 45 46 47 48 49 50
000
ASUS44 KFWD 232010
RWRTX
NORTH TEXAS HOURLY WEATHER ROUNDUP
NATIONAL WEATHER SERVICE FORT WORTH TX
300 PM CDT MON OCT 23 2017

NOTE: "FAIR" INDICATES FEW OR NO CLOUDS BELOW 12,000 FEET WITH NO
SIGNIFICANT WEATHER AND/OR OBSTRUCTIONS TO VISIBILITY.

TXZ118-119-232100-
DALLAS/FORT WORTH METROPLEX

CITY           SKY/WX    TMP DP  RH WIND       PRES   REMARKS
DFW AIRPORT    MOSUNNY   82  40  22 W8        30.05F
DALLAS LOVE    MOSUNNY   81  40  23 W8        30.06F
FTW MEACHAM    SUNNY     83  46  27 W9        30.06F
DAL-EXECUTIVE  SUNNY     81  43  26 SW9       30.06F
FTW-ALLIANCE   PTSUNNY   82  45  27 NW12      30.07F
FTW-SPINKS     SUNNY     82  43  24 SW6       30.08F
ARLINGTON      SUNNY     80  44  27 VRB6      30.06F
GRAND PRAIRIE  SUNNY     81  41  24 SW8       30.08F
ADDISON        SUNNY     79  39  24 W9        30.07F
MESQUITE       SUNNY     81  36  19 SW7       30.07F
LANCASTER      SUNNY     80  42  26 SW8       30.07F
$$

TXZ091>094-102>105-117-120-121-131>134-232100-
NORTH CENTRAL TEXAS

CITY           SKY/WX    TMP DP  RH WIND       PRES   REMARKS
SHRMAN/DENISON CLOUDY    79  46  30 W8G16     30.06F
GAINESVILLE    CLOUDY    78  45  30 W7G16     30.08F
BOWIE          SUNNY     76  46  34 W12       30.08F
BRIDGEPORT     SUNNY     79  47  32 NW8       30.10S
DECATUR        SUNNY     79  47  31 W8        30.07F
DENTON         SUNNY     81  46  29 W10       30.06F
MCKINNEY       CLOUDY    79  42  26 W10       30.07F
BONHAM         SUNNY    N/A N/A N/A W12G17    30.05F
GREENVILLE     SUNNY     81  37  21 W12G17    30.07F
ROCKWALL       SUNNY     78  42  27 MISG      30.07F
TERRELL        SUNNY     80  38  22 W15       30.07F
WAXAHACHIE     SUNNY     80  46  29 SW7       30.08F
CLEBURNE       SUNNY     81  45  28 CALM      30.08F
GRANBURY       SUNNY     83  44  25 CALM      30.07S
$$

TXZ083>090-098>101-113>116-127>130-139>142-154-155-232100-
WESTERN NORTH TEXAS

CITY           SKY/WX    TMP DP  RH WIND       PRES   REMARKS
WICHITA FALLS  PTSUNNY   76  45  33 N7        30.08F
WF-KICKAPOO    SUNNY     76  45  33 N7        30.11F
VERNON           N/A     75  37  25 N16G22    30.13S
ABILENE        SUNNY     79  47  32 CALM      30.09F
ABILENE-DYESS  SUNNY     81  47  30 N8        30.08F
GRAHAM         SUNNY     81  47  30 NW13      30.07F
BRECKENRIDGE   SUNNY     82  45  26 NW12      30.08S HAZE
CISCO          SUNNY     81  45  28 VRB5G12   30.09F
EASTLAND       SUNNY     80  46  29 CALM      30.08S
RANGER         SUNNY     80  47  31 NW3       30.09S
MINERAL WELLS  SUNNY     81  46  29 MISG      30.06S
STEPHENVILLE   SUNNY     81  44  26 SW3       30.10F
COMANCHE       SUNNY     82  48  30 SW6       30.08F
BROWNWOOD      SUNNY     82  45  26 S9        30.07F
COLEMAN        SUNNY     82  42  24 W3        30.08F
$$

TXZ143>147-156>162-174-175-232100-
CENTRAL TEXAS

CITY           SKY/WX    TMP DP  RH WIND       PRES   REMARKS
WACO           SUNNY     80  41  24 S9        30.07F
WACO-TSTC      SUNNY     82  37  20 S5        30.08F
WACO-MCGREGOR  SUNNY     81  47  30 SW5       30.08F
HILLSBORO      SUNNY     81  45  28 SW9       30.07F
MEXIA          SUNNY     78  41  26 S10G22    30.07F
HEARNE         SUNNY     78  44  30 S3        30.10F
CAMERON        SUNNY     80  41  25 S3        30.09F
TEMPLE         SUNNY     80  46  30 S8        30.10F
KILLEEN        SUNNY     80  44  28 SW5       30.09F
KILLEEN-SKYLRK SUNNY     80  46  30 SE3       30.10F
FORT HOOD      SUNNY     80  44  28 CALM      30.06F
GATESVILLE     SUNNY     81  46  30 SW6       30.11F
HAMILTON       SUNNY     81  47  30 S7        30.10F
LAMPASAS       SUNNY     78  51  38 W6        30.09F
$$

TXZ095>097-106>112-122>126-135>138-148>153-164>167-232100-
EAST TEXAS

CITY           SKY/WX    TMP DP  RH WIND       PRES   REMARKS
PARIS          SUNNY     77  44  30 W14G23    30.05F
SULPHUR SPRNGS SUNNY     78  40  26 SW7       30.07F
MOUNT PLEASANT SUNNY     76  46  34 SW10      30.07F
GILMER         SUNNY     76  42  29 W8        30.06F
MINEOLA        SUNNY     77  41  27 W7        30.06F
TYLER          SUNNY     78  40  25 W8        30.07F
LONGVIEW       SUNNY     79  41  25 W12G17    30.05F
MARSHALL       SUNNY     76  35  22 MISG      30.07F
ATHENS         SUNNY     75  41  29 SW5       30.06F
PALESTINE      SUNNY     86  53  32 SW6       30.08
JACKSONVILLE   SUNNY     77  40  27 SW5       30.10F
HENDERSON      SUNNY     78  39  24 SW7       30.08F
CENTER         CLEAR     81  42  25 CALM      30.07F
NACOGDOCHES    SUNNY     77  45  32 W8        30.08F
LUFKIN         SUNNY     76  45  33 MISG      30.08F
$$

SUPPLEMENTAL OBSERVATIONS (NWS FORT WORTH AREA)

CITY           SKY/WX    TMP DP  RH WIND       PRES   REMARKS
CADDO GRASSLND   N/A     79  43  27 W7          N/A
PAT MAYSE LAKE   N/A     75  43  31 SW14        N/A
GREENVILLE       N/A     79  39  24 SW13        N/A
CEDAR HILL       N/A     82  45  26 SW5         N/A
LBJ GRASSLAND    N/A     81  46  30 W7          N/A
POSSUM KINGDOM   N/A     81  46  30 NW8         N/A
GRANBURY         N/A     84  43  23 SW6G14      N/A
MCGREGOR         N/A     81  45  28 S6          N/A
TEMPLE           N/A     81  45  28 SW6         N/A
$$

SUPPLEMENTAL OBSERVATIONS (NWS NORMAN AREA)

CITY           SKY/WX    TMP DP  RH WIND       PRES   REMARKS
GOODLETT         N/A     76  38  25 NE18      30.14S
ODELL            N/A     73  45  36 N12       30.15S
CROWELL          N/A     77  41  27 NE17      30.14R
KNOX CITY        N/A     80  39  23 NE14      30.12S
SEYMOUR          N/A     76  44  32 N9        30.11F
MILLERS CREEK    N/A     79  46  31 N9          N/A
$$

SUPPLEMENTAL OBSERVATIONS (NWS SAN ANGELO AREA)

CITY           SKY/WX    TMP DP  RH WIND       PRES   REMARKS
WEINERT          N/A     79  42  26 N13       30.12F
HASKELL          N/A     79  39  24 N9G16     30.11F
THROCKMORTON     N/A     79  48  33 N6        30.11S
STAMFORD         N/A     81  42  25 N14       30.11S
CLYDE            N/A     79  47  31 NW7       30.11S
HAMBY            N/A     82  46  28 NW5G14      N/A
IVIE RESERVOIR   N/A     84  43  23 N8          N/A
COLORADO BEND    N/A     82  45  26 SW6G15      N/A
$$

SUPPLEMENTAL OBSERVATIONS (NWS SHREVEPORT AREA)

CITY           SKY/WX    TMP DP  RH WIND       PRES   REMARKS
CLARKSVILLE      N/A     81  43  26 W1          N/A
TEXARKANA        N/A     75  45  33 SW6         N/A
LINDEN           N/A     79  39  24 W7          N/A
GILMER           N/A     79  41  25 W8          N/A
HENDERSON        N/A     81  39  22 W9          N/A
LUFKIN           N/A     79  43  27 MISG        N/A
$$

SUPPLEMENTAL OBSERVATIONS ARE A COLLECTION OF AUTOMATED INSTRUMENTS
THAT ARE MAINTAINED BY A VARIETY OF FEDERAL AND STATE AGENCIES.
CERTAIN ELEMENTS...SUCH AS HUMIDITY VALUES AND SUSTAINED WIND
SPEEDS...MAY BE APPROXIMATED.





USA.gov is the U.S. government's official web portal to all federal, state and local government web resources and services.